TimeEDT,TemperatureF,Dew PointF,Humidity,Sea Level PressureIn,VisibilityMPH,Wind Direction,Wind SpeedMPH,Gust SpeedMPH,PrecipitationIn,Events,Conditions,WindDirDegrees,DateUTC
12:53 AM,61.0,57.9,90,30.08,10.0,Calm,Calm,-,N/A,,Clear,0,2014-03-21 04:53:00
1:53 AM,63.0,59.0,87,30.08,10.0,NNE,3.5,-,N/A,,Mostly Cloudy,30,2014-03-21 05:53:00
2:53 AM,64.0,60.1,87,30.07,10.0,NNE,5.8,-,N/A,,Mostly Cloudy,30,2014-03-21 06:53:00
3:53 AM,62.1,59.0,90,30.06,9.0,North,3.5,-,N/A,,Mostly Cloudy,10,2014-03-21 07:53:00
4:53 AM,61.0,57.9,90,30.05,10.0,Calm,Calm,-,N/A,,Partly Cloudy,0,2014-03-21 08:53:00
5:53 AM,61.0,59.0,93,30.05,8.0,Calm,Calm,-,N/A,,Clear,0,2014-03-21 09:53:00
6:53 AM,60.1,57.9,93,30.05,10.0,Calm,Calm,-,N/A,,Clear,0,2014-03-21 10:53:00
7:53 AM,61.0,57.9,90,30.07,9.0,Calm,Calm,-,N/A,,Clear,0,2014-03-21 11:53:00
8:53 AM,64.9,57.9,78,30.10,10.0,NNE,4.6,-,N/A,,Mostly Cloudy,30,2014-03-21 12:53:00
9:53 AM,70.0,60.1,71,30.12,10.0,NNE,5.8,-,N/A,,Partly Cloudy,30,2014-03-21 13:53:00
10:53 AM,73.9,60.1,62,30.13,10.0,North,6.9,-,N/A,,Clear,10,2014-03-21 14:53:00
11:53 AM,75.9,55.9,50,30.13,10.0,East,11.5,-,N/A,,Clear,90,2014-03-21 15:53:00
12:53 PM,78.1,55.9,46,30.12,10.0,Variable,5.8,17.3,N/A,,Clear,0,2014-03-21 16:53:00
1:53 PM,80.1,53.1,39,30.10,10.0,NE,6.9,-,N/A,,Clear,50,2014-03-21 17:53:00
2:53 PM,81.0,53.1,38,30.08,10.0,SE,8.1,-,N/A,,Partly Cloudy,130,2014-03-21 18:53:00
3:53 PM,82.0,53.1,37,30.05,10.0,South,8.1,-,N/A,,Clear,170,2014-03-21 19:53:00
4:53 PM,82.0,53.1,37,30.04,10.0,Variable,4.6,-,N/A,,Clear,0,2014-03-21 20:53:00
5:53 PM,80.1,55.0,42,30.04,10.0,ESE,11.5,-,N/A,,Mostly Cloudy,120,2014-03-21 21:53:00
6:53 PM,77.0,57.0,50,30.04,10.0,ESE,11.5,-,N/A,,Partly Cloudy,120,2014-03-21 22:53:00
7:53 PM,73.9,57.0,55,30.06,10.0,ESE,10.4,-,N/A,,Clear,110,2014-03-21 23:53:00
8:39 PM,73.0,59.0,61,30.06,10.0,ESE,10.4,-,N/A,,Partly Cloudy,110,2014-03-22 00:39:00
8:53 PM,72.0,59.0,64,30.06,10.0,East,9.2,-,N/A,,Partly Cloudy,100,2014-03-22 00:53:00
9:53 PM,71.1,60.1,68,30.07,10.0,ESE,8.1,-,N/A,,Clear,110,2014-03-22 01:53:00
10:53 PM,69.1,61.0,75,30.09,10.0,East,5.8,-,N/A,,Clear,90,2014-03-22 02:53:00
11:53 PM,69.1,61.0,75,30.09,10.0,East,4.6,-,N/A,,Mostly Cloudy,100,2014-03-22 03:53:00